Location: Pasadena, ca
(34.1243°N, 118.1037°W)
Time: 09:38:16
(UTC-08:00)

Envisat - Visible Passes

Search period start: 19 February 2018 00:00
Search period end: 01 March 2018 00:00
Orbit: 764 x 766 km, 98.2° (Epoch: 19 February)

Date Brightness Start Highest point End Pass type
(mag) Time Alt. Az. Time Alt. Az. Time Alt. Az.
19 Feb 3.6 18:47:34 10° SE 18:52:07 34° ENE 18:56:41 10° N visible
19 Feb 5.2 20:27:15 10° SW 20:31:09 22° W 20:35:04 10° NW visible
20 Feb 4.5 18:12:54 10° E 18:15:45 15° ENE 18:18:37 10° NNE visible
20 Feb 3.6 19:49:20 10° S 19:54:16 53° W 19:59:15 10° NNW visible
21 Feb 2.9 19:12:34 10° SSE 19:17:35 64° ENE 19:22:36 10° N visible
21 Feb 5.9 20:55:15 10° WSW 20:56:57 12° W 20:58:39 10° WNW visible
22 Feb 3.9 18:36:52 10° SE 18:41:04 27° ENE 18:45:17 10° NNE visible
22 Feb 4.8 20:15:36 10° SSW 20:19:56 29° W 20:24:19 10° NW visible
23 Feb 4.8 18:02:58 10° E 18:04:45 12° ENE 18:06:33 10° NE visible
23 Feb 3.2 19:38:05 10° S 19:43:07 70° WSW 19:48:12 10° NNW visible
24 Feb 3.1 19:01:37 10° SSE 19:06:29 49° ENE 19:11:22 10° N visible
24 Feb 5.7 20:42:47 10° SW 20:45:43 15° W 20:48:40 10° WNW visible
25 Feb 4.2 18:26:16 10° ESE 18:30:02 21° ENE 18:33:48 10° NNE visible
25 Feb 4.3 20:04:07 10° SSW 20:08:46 37° W 20:13:27 10° NNW visible
26 Feb 2.9 19:26:55 10° SSE 19:31:59 89° WSW 19:37:06 10° NNW visible
27 Feb 3.4 18:50:45 10° SE 18:55:24 38° ENE 19:00:05 10° N visible
27 Feb 5.3 20:30:49 10° SW 20:34:29 20° W 20:38:11 10° NW visible
28 Feb 4.4 18:15:51 10° ESE 18:19:00 17° ENE 18:22:11 10° NNE visible
28 Feb 3.9 19:52:43 10° S 19:57:36 48° W 20:02:30 10° NNW visible
